カタログに戻る

STARLINK-32829

運用中通信VLEO
NORAD 63049·PAYLOAD·🇺🇸 United States

打ち上げ Feb 18, 2025 から Cape Canaveral Space Force Station

Loading…

次のパス (今後24時間)

TLE

最新Source: CelesTrak SupGP

元期: Sep 15, 2026, 02:51 UTC

1 63049C 25034W   26258.11923611  .00018834  00000+0  55650-3 0  2588
2 63049  53.1577 107.1904 0001202  80.5007 272.9237 15.34379658    13

AllMySatでSTARLINK-32829をリアルタイム追跡

Download on the App Store